Cosmos 1707 Rocket - Orbit

View from above orbital plane
View from above orbital plane
View from above satellite
View from above satellite

Ground track
Ground track

The orbit data is extracted from the following two-line orbital elements,

1 16327U 85113B   13138.48708245  .00000413  00000-0  48478-4 0   366
2 16327 082.5369 045.1856 0018734 217.6621 195.5746 14.82453801480949
Epoch (UTC): 18 May 2013 11:41:23
Eccentricity: 0.0018734
inclination: 82.5369°
perigee height: 608 km
apogee height: 635 km
right ascension of ascending node: 45.1856°
argument of perigee: 217.6621°
revolutions per day: 14.82453801
mean anomaly at epoch: 195.5746°
orbit number at epoch: 48094

The dashed part of the orbit path shows where the satellite is in the earth's shadow,  

Developed and maintained by Chris Peat, Heavens-Above GmbH. Please read the updated FAQ before sending e-mail. Imprint. DLR